Zurück zum Katalog

BREEZE-M DEB

TANK

AktivHEO
NORAD 36103·DEBRIS·🇷🇺 Russia

Gestartet Nov 24, 2009 von Baikonur Cosmodrome

Loading…

Nächste Überflüge (nächste 24 Stunden)

TLE

AktuellSource: Space-Track

Epoche: Sep 13, 2026, 09:36 UTC

1 36103U 09065C   26256.40040133  .00004827  00000-0  75469-3 0  9994
2 36103  49.3834 339.7134 5219589  10.1976 357.2842  5.26838977312731

Verfolge BREEZE-M DEB in Echtzeit mit AllMySat

Download on the App Store